GFSSGP_700_rhum_021.txt.gz
RH
4 2 4 7 19 19 24 31 36 43 47 58 52 49 52 55 66 76 55 32 35 48 65 62 41 37 35 37 36 34 31 19 16 13 16 20 20 22 21 33 46 57 66 62 62 72 71 75 77
2 2 6 18 17 16 22 28 34 42 46 44 42 42 46 49 21 38 31 34 45 53 50 40 34 31 27 21 15 12 13 14 16 15 15 15 18 18 20 25 30 38 49 62 71 75 51 57 55
2 5 18 15 14 14 23 26 41 47 48 48 46 50 57 72 82 89 34 33 32 32 28 23 18 14 12 12 15 16 17 17 16 16 16 16 18 19 18 23 26 26 28 40 40 34 32 33 34
11 12 17 14 20 21 26 37 43 46 52 50 41 53 26 80 88 27 33 30 26 20 16 13 12 14 15 16 18 19 18 20 22 23 26 26 26 26 26 25 22 20 22 24 24 25 24 24 24
18 18 16 16 24 28 34 38 40 41 42 44 42 47 57 45 43 29 26 21 17 13 13 14 16 18 19 18 18 18 16 11 11 13 17 25 30 28 12 10 14 20 23 25 25 27 28 26 24
18 19 15 20 26 34 39 41 38 35 38 40 41 49 72 25 27 24 20 18 15 15 17 21 19 16 16 21 18 7 5 6 8 16 24 30 14 7 7 8 10 15 23 25 23 20 13 8 4
19 18 17 22 27 31 35 34 29 30 34 35 37 45 53 32 23 22 19 16 16 21 24 21 14 17 23 14 5 5 5 4 4 5 12 10 8 8 10 12 11 9 9 10 9 7 6 6 8
17 17 18 20 23 23 21 25 28 27 37 40 41 40 63 29 26 21 20 24 28 30 29 15 16 13 7 6 6 6 4 4 4 8 10 13 16 18 20 21 22 22 20 17 15 15 16 18 18
13 13 13 13 13 15 15 16 17 24 33 36 36 47 55 24 26 21 23 27 28 30 18 22 32 10 10 10 10 10 9 6 7 14 19 23 25 25 25 26 26 26 26 26 25 25 24 25 25
14 11 12 12 14 13 13 13 16 24 25 27 39 39 74 18 19 20 22 21 22 17 18 22 13 12 18 24 25 26 25 23 21 24 28 31 33 34 34 33 32 31 31 32 32 33 34 34 35
13 13 14 13 12 11 12 12 14 16 19 24 30 40 66 5 5 31 80 82 87 88 78 54 14 24 29 34 34 36 33 32 33 36 38 38 37 35 36 37 37 38 39 41 40 39 39 40 41
14 14 12 12 13 15 14 14 15 14 17 21 24 41 58 24 50 83 81 75 81 89 90 46 26 30 35 38 39 37 36 37 39 41 42 44 44 40 38 37 37 36 34 35 39 44 44 44 44
15 14 13 14 14 17 18 18 18 17 19 17 31 44 57 70 76 73 75 76 78 83 88 95 36 36 38 42 45 44 43 45 46 47 46 49 53 48 40 42 38 37 38 35 33 33 34 36 38
20 22 25 24 24 18 22 22 25 22 21 21 29 40 49 55 61 69 75 76 77 82 89 94 84 38 38 42 44 45 46 49 52 52 55 57 57 55 53 43 50 49 42 40 39 36 33 33 34
22 23 26 26 27 26 23 21 21 24 24 24 25 29 40 48 51 57 69 76 79 82 90 98 95 39 40 43 45 48 48 49 50 56 52 56 63 59 58 66 61 52 52 50 42 37 35 35 36
22 22 21 26 26 29 27 21 22 27 28 26 28 29 34 42 47 55 63 70 76 82 88 90 49 42 44 49 50 51 51 50 53 59 63 64 58 47 45 45 46 46 40 38 37 37 34 33 34
18 17 15 25 25 26 25 21 23 30 28 27 25 27 30 36 48 56 73 64 72 77 65 51 41 44 46 44 54 52 53 52 59 58 66 68 68 54 55 54 51 49 46 43 46 38 35 34 34
14 14 18 16 26 22 20 20 25 30 22 26 27 29 30 32 44 68 73 39 32 32 35 37 39 42 43 49 53 58 54 57 59 64 67 66 73 74 79 75 64 56 53 50 51 46 36 39 38
18 19 19 21 28 26 24 25 27 32 31 33 33 34 34 38 54 66 36 30 33 34 35 38 49 51 52 52 53 57 53 62 64 69 72 75 75 76 78 83 85 84 82 56 56 44 32 29 30
26 24 23 28 30 24 28 26 30 34 35 37 39 44 50 55 52 43 34 34 34 38 46 52 57 57 59 58 56 56 60 65 69 74 83 81 78 80 79 82 86 92 82 67 51 39 30 27 25
30 29 35 33 32 32 30 27 30 35 38 38 42 46 49 55 59 38 35 36 39 47 53 56 58 59 60 66 66 66 68 71 74 85 84 82 85 90 86 79 81 72 64 59 45 31 26 29 27
30 41 40 38 33 24 30 24 31 33 39 43 48 52 55 56 48 39 42 45 51 53 57 60 63 66 67 68 67 68 72 74 93 88 89 88 82 67 56 61 67 71 51 51 43 38 34 31 27
38 27 42 42 36 28 27 22 34 32 36 44 54 61 65 45 43 46 46 53 57 57 56 56 60 66 69 68 70 73 82 95 93 93 77 51 62 60 60 65 64 52 45 51 38 28 26 27 28
36 48 43 44 37 32 32 30 32 34 41 50 61 73 70 45 48 50 54 56 53 51 55 63 70 77 82 83 86 84 85 81 67 46 44 45 52 63 76 72 47 46 55 38 34 29 24 21 18
44 40 37 42 39 37 39 30 46 52 55 59 68 78 55 52 55 56 54 52 57 54 64 75 84 80 73 62 55 51 50 50 53 56 54 58 66 76 78 78 66 52 46 43 33 24 17 23 30
48 46 50 44 39 31 40 26 41 55 61 67 69 73 68 71 60 57 55 48 60 63 72 71 53 50 49 49 50 52 56 63 57 55 60 64 62 59 59 61 56 39 22 21 29 43 60 73 82
49 51 49 56 58 54 27 38 53 58 64 68 71 74 82 80 58 77 89 96 91 78 72 60 58 61 57 51 50 51 54 55 49 46 41 40 38 33 27 17 15 21 35 50 78 90 94 94 89
46 49 54 50 60 40 21 23 28 60 59 61 62 67 78 81 84 91 94 96 92 61 60 65 72 83 63 60 59 57 53 46 37 35 33 30 24 15 15 36 65 70 67 82 97 98 97 96 95
49 52 54 44 49 45 38 28 42 46 51 60 59 72 82 88 92 90 90 88 100 100 100 99 84 71 64 60 61 50 39 28 23 17 10 10 14 33 53 81 98 89 93 83 88 93 96 95 96
53 51 51 48 38 50 63 48 50 49 58 66 68 77 86 92 90 96 99 98 99 100 100 88 74 72 63 52 39 25 17 10 7 10 14 24 45 74 84 82 93 95 97 99 98 95 94 99 98

GFSSGP_700_rhum_024.txt.gz
RH
6 4 3 6 25 19 17 26 34 39 44 46 45 43 55 60 62 81 81 58 40 43 49 50 39 39 37 36 34 34 31 19 18 18 15 17 23 21 24 25 27 31 40 50 50 49 56 66 50
4 3 6 19 24 19 21 31 35 41 43 36 41 40 52 50 30 32 48 34 33 26 58 60 45 36 32 28 20 13 14 15 16 16 16 15 16 17 18 20 22 26 28 34 37 48 43 40 34
3 3 16 21 18 17 23 34 46 42 37 40 43 58 66 78 90 29 34 31 35 32 43 40 33 26 16 13 14 16 17 18 17 16 17 18 20 20 20 19 19 19 22 29 27 29 30 26 22
3 7 13 18 17 21 24 39 41 40 44 41 40 49 38 80 68 41 35 31 29 30 27 20 15 13 14 15 17 17 16 16 15 12 12 16 22 25 25 18 8 9 14 20 20 18 19 20 19
5 16 19 17 26 29 33 37 35 39 40 37 41 77 83 82 34 32 34 30 26 23 18 14 15 17 16 14 17 17 12 8 9 14 18 22 26 16 7 7 7 8 11 19 23 25 26 23 18
20 19 19 18 27 32 35 35 35 36 42 37 44 71 89 72 27 27 27 22 20 16 15 18 20 13 13 15 9 4 4 4 4 5 10 16 10 7 7 9 11 12 10 10 10 12 10 7 4
21 20 20 23 27 30 36 32 28 30 32 34 37 59 76 71 25 25 21 19 17 18 22 24 21 11 11 6 4 4 4 5 4 4 7 8 9 13 16 18 19 20 21 21 20 16 13 12 13
19 16 19 23 24 28 25 28 27 26 35 33 41 50 51 22 23 22 21 20 24 28 28 24 11 10 7 6 6 7 7 6 5 7 12 16 19 22 23 25 25 26 26 26 25 25 25 25 25
15 16 18 18 20 17 17 16 20 24 34 32 46 43 53 23 25 24 20 20 24 29 28 17 12 9 7 9 13 16 16 15 15 17 19 24 28 27 28 31 32 32 32 32 31 30 31 32 32
14 14 13 12 13 14 13 13 15 24 26 30 47 58 55 16 25 24 22 25 25 32 21 19 13 10 19 24 27 26 28 28 28 29 32 34 35 35 37 34 34 33 34 35 36 38 40 40 40
14 14 13 11 12 12 12 13 16 19 19 27 37 61 37 6 11 12 43 79 88 78 81 68 24 22 28 37 35 37 34 34 35 36 40 42 43 43 42 38 36 35 32 31 30 32 30 29 31
14 13 11 11 12 11 11 12 14 14 18 22 27 40 66 42 36 70 83 83 64 89 71 60 24 30 34 37 38 40 40 41 42 41 43 43 44 44 41 42 40 34 36 37 34 34 34 32 29
14 10 11 13 11 15 16 15 15 16 18 21 32 44 61 73 80 83 78 78 77 90 89 94 55 32 34 38 40 41 43 43 44 45 45 47 47 45 45 45 44 42 45 42 42 38 34 32 32
16 16 17 17 18 12 17 20 17 17 19 20 31 42 52 64 69 71 71 75 78 76 82 87 60 33 33 34 36 39 40 43 47 49 48 51 52 44 42 47 38 41 41 38 38 33 30 28 26
19 20 22 22 23 23 20 21 20 22 21 20 23 31 42 48 54 60 66 72 72 85 88 84 80 75 39 40 42 46 46 48 52 52 52 55 43 41 48 45 44 42 39 36 32 36 40 42 40
19 20 21 23 24 25 23 22 19 22 23 23 24 25 28 40 46 50 61 71 77 75 84 97 85 80 40 43 41 45 50 53 55 53 56 53 45 51 52 52 54 56 53 52 49 47 47 48 47
19 18 20 25 22 25 24 22 21 25 28 26 25 26 29 32 42 47 59 66 74 78 80 77 80 64 47 41 41 47 56 58 58 54 60 63 56 65 66 73 73 72 67 58 57 57 62 61 54
18 13 15 16 23 18 17 19 22 26 28 27 25 24 26 29 35 48 67 77 65 58 59 56 48 44 43 51 53 57 56 56 56 55 65 64 67 72 77 77 77 79 82 82 80 78 78 68 65
18 16 15 17 23 22 19 21 24 27 29 31 30 31 31 32 41 56 69 70 59 40 34 35 37 46 55 55 56 57 58 58 59 59 64 69 74 82 79 80 77 83 75 73 72 73 72 64 67
20 21 21 24 26 19 24 24 26 32 36 35 37 36 39 43 47 53 64 67 56 37 36 40 47 52 56 59 62 62 62 62 62 64 76 80 91 79 88 86 73 63 65 60 60 68 67 56 50
24 26 34 31 29 28 27 26 29 34 39 40 43 48 55 55 52 49 49 48 38 39 45 51 53 56 57 63 66 66 67 66 67 83 84 94 89 96 78 55 57 58 56 56 64 61 50 52 52
27 40 39 33 31 25 26 24 29 35 40 45 49 51 55 58 64 55 37 39 41 46 52 56 56 55 54 58 64 67 69 75 82 87 88 87 77 55 48 53 56 55 58 63 66 62 56 49 52
35 36 24 37 35 30 25 28 30 34 39 46 55 62 66 67 75 53 47 45 46 51 54 49 46 55 62 66 71 71 65 59 55 52 47 45 44 50 52 54 58 62 74 79 72 67 66 59 48
27 44 38 38 36 38 28 26 37 32 38 50 64 74 77 79 62 56 55 62 53 49 50 42 45 60 75 66 51 45 46 48 45 40 42 45 50 51 46 45 47 50 48 51 53 50 47 41 26
40 39 41 56 49 51 37 30 44 44 46 52 66 73 72 75 76 77 68 66 71 75 55 39 39 53 57 52 60 62 59 54 50 52 50 47 42 38 36 36 36 36 32 26 21 18 22 40 48
44 40 51 56 62 45 35 26 49 53 45 43 58 72 78 84 85 88 86 92 95 91 78 62 50 52 57 60 59 63 60 54 53 50 43 38 31 25 24 16 11 10 12 16 23 79 76 99 98
45 50 41 45 55 49 24 46 52 57 62 63 66 69 75 80 86 88 94 93 91 83 66 60 67 73 69 62 58 61 57 50 46 41 32 20 10 6 6 7 11 14 40 57 100 97 88 97 94
42 36 45 50 64 47 25 26 51 56 60 62 62 62 71 77 84 88 89 91 84 76 83 96 95 98 81 77 69 66 52 45 33 21 9 6 6 6 8 12 39 78 82 80 91 91 88 80 87
42 44 49 40 43 51 52 34 39 48 53 57 60 61 74 79 65 89 94 80 87 81 86 94 97 99 88 73 64 51 41 26 17 8 7 7 8 8 16 62 80 93 90 94 92 91 99 96 78
45 46 48 50 48 52 55 48 48 48 56 61 68 74 85 80 72 83 78 84 88 93 87 99 100 88 74 64 48 33 14 10 9 9 9 9 9 16 46 78 77 87 85 93 100 95 80 64 42

GFSSGP_700_rhum_030.txt.gz
RH
6 6 6 9 13 12 18 37 47 50 43 43 53 60 63 68 66 60 45 49 55 50 50 43 38 37 34 34 32 27 26 21 15 18 18 18 17 16 16 16 15 15 14 15 15 18 21 24 30
10 5 7 10 16 23 41 46 54 54 51 47 42 43 43 42 37 44 44 44 47 57 51 42 41 40 37 30 20 15 14 15 17 18 16 12 11 13 15 15 16 14 8 6 7 11 13 14 15
6 6 9 18 14 20 39 41 48 46 45 41 37 44 33 45 37 27 49 58 43 52 51 52 44 41 34 16 14 16 16 14 14 13 11 9 11 12 13 8 5 5 5 8 7 8 9 16 19
3 6 12 18 22 28 40 42 46 50 42 41 39 28 43 57 45 27 35 32 44 54 58 60 55 35 14 17 15 11 13 13 12 8 6 4 5 4 4 4 6 8 13 15 16 16 13 9 8
7 10 21 39 43 42 42 40 43 43 43 50 44 40 42 50 43 27 35 39 49 53 47 33 16 16 18 15 10 7 5 4 3 2 2 4 7 7 9 15 17 19 20 21 21 21 20 21 20
10 18 18 29 42 42 44 43 41 39 42 43 38 37 30 15 17 30 34 31 25 19 16 15 18 21 19 9 5 3 3 3 3 5 8 10 14 17 20 22 25 27 28 29 29 28 28 26 25
16 20 21 22 48 48 39 44 42 41 40 39 38 35 33 17 26 34 30 22 16 15 17 21 26 24 10 4 3 5 7 8 9 11 17 21 24 25 27 29 28 28 30 29 29 29 30 32 33
23 20 20 33 33 38 40 38 37 39 43 38 47 38 30 18 26 28 20 16 17 19 23 26 20 10 6 4 6 9 12 18 22 24 26 27 29 30 30 30 30 31 31 29 27 27 27 28 28
17 17 18 20 34 45 24 27 33 34 32 43 40 40 29 22 23 22 20 19 21 22 22 22 12 8 7 9 13 19 24 25 26 29 32 34 34 34 35 33 32 31 29 27 25 24 26 31 31
18 14 17 25 25 21 25 22 17 25 32 33 34 34 18 22 22 24 24 22 20 16 13 8 8 8 9 14 20 26 28 31 35 37 35 35 36 36 34 34 34 33 32 30 27 25 23 24 28
17 12 16 19 19 15 12 14 14 16 18 17 11 17 23 21 25 24 18 17 27 49 49 43 22 13 16 20 27 30 30 37 39 37 36 34 38 40 40 40 40 39 40 38 36 33 30 25 22
12 11 13 13 11 11 12 16 17 18 20 24 23 23 14 10 9 8 10 37 59 56 42 55 51 29 23 28 33 32 35 38 38 40 41 42 44 45 45 46 47 45 48 47 44 43 41 38 32
14 12 11 12 12 11 13 14 18 19 23 27 29 25 28 40 32 35 34 49 80 79 68 74 63 64 51 44 36 35 39 42 40 43 46 48 50 50 51 51 52 52 54 54 50 47 46 45 44
13 12 10 9 14 14 13 14 15 19 17 20 30 25 34 48 51 49 53 52 66 79 72 83 82 86 66 56 48 46 47 46 48 52 51 55 53 53 54 55 57 59 60 60 59 58 50 49 52
13 6 6 5 11 11 13 17 17 16 18 18 19 25 31 47 50 52 58 61 64 61 75 76 88 95 79 65 61 54 56 53 51 53 55 57 56 55 57 60 62 68 68 68 68 68 63 57 56
17 21 22 22 22 19 18 20 18 18 19 20 24 22 29 48 54 74 72 70 70 76 80 82 85 57 66 68 56 52 57 58 55 59 62 62 61 61 61 62 64 64 68 76 76 75 72 62 46
19 20 22 23 24 24 26 23 23 21 22 24 23 23 29 44 53 66 73 69 76 79 81 88 78 77 73 73 50 49 59 61 61 69 77 79 91 86 71 68 68 71 79 79 82 72 56 53 43
21 20 19 23 24 25 26 20 23 22 24 24 24 23 25 28 48 55 72 70 73 79 78 74 82 83 76 53 50 64 64 66 66 65 66 77 74 77 83 83 83 91 91 90 74 54 47 45 39
22 21 22 24 23 21 20 23 24 25 28 29 28 27 26 27 37 58 70 61 70 70 74 82 85 80 50 56 64 64 65 66 69 73 78 79 82 88 91 94 90 82 82 58 48 43 44 39 27
27 23 25 24 26 22 28 28 29 29 28 30 27 29 30 30 34 57 63 58 57 59 59 70 63 54 59 62 63 62 64 68 76 83 81 80 83 81 73 74 78 83 71 58 59 54 39 33 30
28 30 28 31 30 28 30 34 32 35 34 37 37 34 34 36 42 57 55 52 50 61 59 51 48 52 56 54 50 44 49 61 75 79 72 61 64 68 64 61 61 59 59 56 45 38 36 29 20
32 35 34 32 30 19 27 39 53 50 44 45 40 37 39 45 52 52 52 49 44 40 40 43 46 50 51 39 36 40 45 48 49 51 52 53 54 52 53 52 49 47 46 42 36 26 13 7 7
25 25 25 30 31 24 31 34 52 51 48 46 46 39 40 36 37 39 39 40 38 39 41 44 48 37 31 29 31 35 35 34 37 43 41 38 43 45 51 40 38 38 38 32 19 10 8 7 7
38 38 39 41 44 46 44 42 49 47 41 46 48 48 48 45 46 40 29 29 27 29 29 30 32 33 36 38 38 40 41 42 44 52 66 61 59 60 47 42 36 27 15 8 8 10 10 8 9
38 41 46 57 68 63 48 46 53 47 45 45 55 54 54 61 52 40 45 42 35 38 36 39 45 54 54 55 54 46 50 53 61 74 76 70 62 51 40 26 15 12 12 17 16 11 11 24 54
42 46 44 57 76 54 46 61 64 57 56 66 68 72 70 71 68 70 66 63 66 65 65 68 74 67 63 59 58 52 52 58 72 82 77 68 50 31 24 25 27 31 28 17 13 15 33 59 82
46 45 40 48 60 57 58 66 66 69 72 82 89 82 82 76 73 77 80 89 90 91 90 90 81 76 63 72 69 55 51 71 92 86 63 47 33 38 38 41 42 33 18 15 14 26 47 64 78
35 33 46 45 61 59 55 60 60 66 67 73 66 75 79 79 80 80 84 88 80 74 81 79 76 68 69 90 76 61 68 73 65 58 42 36 42 46 41 51 55 20 17 23 36 54 64 68 68
40 48 42 45 48 64 79 52 55 62 66 72 78 79 81 90 91 86 83 80 83 89 87 75 63 62 94 93 55 48 45 36 19 46 72 39 56 58 55 48 29 22 26 38 45 31 40 53 36
30 40 37 31 48 50 58 54 56 55 60 74 72 79 82 79 78 77 80 82 84 84 79 64 71 75 74 49 34 26 37 69 42 46 58 60 65 86 81 76 41 35 39 51 53 20 18 26 26

GFSSGP_700_rhum_033.txt.gz
RH
10 26 28 12 13 13 15 31 49 47 68 68 64 64 62 58 62 61 49 47 49 49 50 46 43 40 36 36 34 26 21 17 15 16 18 18 15 11 12 13 14 14 13 10 6 8 10 13 17
8 8 12 13 15 16 39 41 54 57 54 70 64 63 67 67 61 55 48 43 45 45 49 46 40 40 38 36 22 15 15 16 16 17 15 12 8 10 13 13 10 6 4 6 7 7 7 12 15
9 9 11 16 15 17 44 51 48 60 57 49 62 57 51 38 35 53 46 32 32 47 52 43 43 42 38 30 15 16 16 13 13 13 11 6 7 8 5 5 6 7 10 14 15 16 15 12 8
9 11 11 14 14 16 48 47 42 42 41 47 52 63 54 47 31 39 45 37 34 47 53 52 48 47 34 15 17 11 11 9 9 4 3 4 6 6 10 16 18 20 20 22 22 22 22 21 21
6 6 24 24 44 40 27 51 49 46 44 54 49 44 57 56 34 33 32 30 43 53 57 60 54 22 17 18 11 7 4 3 3 4 7 11 14 17 20 22 24 27 28 28 26 27 28 29 29
9 12 22 41 40 45 50 51 49 46 44 41 44 35 18 15 42 36 34 38 59 64 51 27 15 20 23 14 6 3 4 5 8 10 16 20 23 26 28 28 28 28 28 27 26 26 26 26 28
11 19 23 24 45 48 55 54 44 41 39 41 41 35 27 18 38 35 32 31 32 18 14 18 23 24 16 5 3 6 8 12 19 22 25 27 29 31 32 32 32 32 31 29 27 25 25 26 28
16 22 22 23 44 57 55 54 45 40 38 38 35 38 29 18 32 32 25 17 15 16 20 25 23 13 7 5 8 12 20 23 26 32 36 36 36 35 34 35 34 33 32 32 30 27 25 25 28
20 19 22 35 43 49 48 50 41 37 35 37 36 37 29 22 27 26 20 18 18 22 23 21 16 8 7 10 15 22 25 28 33 34 34 34 34 36 38 38 38 38 38 39 38 34 31 28 27
22 19 16 25 43 46 40 32 29 30 32 33 34 34 25 18 22 22 22 22 22 23 18 14 11 8 11 18 23 27 27 34 35 33 34 32 34 37 40 42 44 45 44 44 44 43 40 37 35
20 16 21 25 29 29 21 16 15 25 20 19 15 16 10 16 20 23 24 24 32 46 50 48 30 15 22 26 30 31 33 36 38 35 33 34 37 40 44 47 50 51 51 51 51 49 44 40 38
14 17 20 23 23 18 16 17 17 20 22 21 15 13 6 7 12 19 22 20 60 69 62 67 46 30 23 25 31 32 33 37 41 40 38 41 44 46 49 52 54 56 56 56 57 56 54 47 46
13 14 12 12 12 13 13 16 15 18 22 21 22 19 30 40 36 33 33 46 68 78 68 62 55 51 61 62 42 43 47 40 38 42 46 49 52 53 54 56 58 59 61 62 63 65 65 65 65
11 11 12 12 13 12 14 14 14 19 21 18 24 22 37 46 51 50 53 51 51 57 68 58 53 63 62 46 58 66 57 51 48 48 48 54 61 58 57 63 63 63 64 65 65 66 67 70 68
12 11 11 14 12 12 13 14 15 15 16 18 23 27 45 58 69 68 67 71 72 75 80 70 68 66 60 54 59 57 60 57 49 50 54 55 59 58 59 63 62 63 65 65 67 71 76 71 68
20 20 12 13 14 13 12 14 15 15 16 20 24 25 40 54 62 74 73 78 81 80 79 80 85 81 80 74 78 67 57 56 54 56 57 60 60 58 59 61 63 67 70 72 75 74 61 50 42
19 21 22 23 21 22 18 24 22 19 19 21 22 23 30 42 55 61 76 77 79 78 82 88 96 96 97 98 84 61 49 51 55 61 67 68 69 74 79 77 73 75 79 86 87 86 66 52 46
16 19 20 21 23 25 26 23 23 22 21 22 22 23 25 29 40 50 66 72 74 77 85 90 92 95 90 90 75 52 54 57 62 68 73 83 89 89 88 89 98 100 94 87 96 77 57 52 48
23 22 23 21 23 25 24 21 23 22 22 22 22 25 25 25 32 37 50 60 69 74 82 81 80 78 84 67 67 62 62 62 63 67 80 86 97 100 99 94 84 86 80 69 63 60 56 50 47
23 23 24 24 24 25 25 23 24 21 22 24 26 29 29 28 28 34 43 50 64 67 62 68 81 66 56 56 58 57 61 70 81 88 86 86 86 81 70 67 72 82 81 74 61 53 48 46 42
24 25 25 25 27 27 29 34 34 31 30 30 33 35 39 48 49 59 47 51 55 59 57 52 53 56 59 57 51 53 62 69 66 63 61 64 66 60 55 56 57 57 56 52 41 39 38 36 28
31 29 28 30 30 29 32 49 54 40 39 41 42 48 54 62 54 65 70 51 45 44 47 51 55 59 51 43 46 49 46 43 37 34 38 40 40 40 42 48 53 54 57 46 39 30 21 14 11
28 33 31 34 30 27 37 39 56 65 56 50 53 58 61 61 58 53 51 41 36 38 46 43 38 35 36 34 34 34 38 39 36 35 39 47 54 54 55 61 64 58 48 41 32 23 17 16 20
33 37 38 43 44 48 51 47 54 52 49 51 52 51 53 56 66 56 45 36 44 34 40 43 40 38 36 36 38 37 42 57 56 51 54 66 66 63 66 67 52 36 32 32 33 35 35 30 19
33 39 47 58 66 66 53 53 53 55 54 51 48 52 59 60 64 57 48 54 51 54 49 57 58 62 58 60 59 49 50 76 75 58 52 56 63 58 41 34 35 38 36 28 26 28 29 18 15
37 40 40 56 73 55 52 63 59 54 55 59 68 73 74 70 64 69 79 71 58 61 69 70 80 80 80 75 60 54 62 79 70 46 39 41 24 19 61 50 53 57 50 42 28 17 17 18 29
45 41 34 43 61 56 64 69 64 62 64 68 75 79 74 68 77 72 66 62 72 83 88 82 82 77 80 66 45 52 60 55 38 43 49 37 34 37 55 52 49 74 76 42 28 24 25 31 39
36 42 44 44 61 58 58 68 63 69 68 67 70 70 71 83 73 71 76 84 91 96 87 85 86 73 55 48 58 55 45 25 21 31 43 47 56 69 74 72 58 94 96 67 39 39 43 42 44
39 35 34 42 49 68 78 57 54 58 64 66 67 74 72 76 79 83 90 93 97 95 95 91 54 42 44 51 48 33 18 15 18 52 76 75 89 91 83 72 87 77 94 97 89 68 62 62 46
25 32 31 24 40 50 57 49 49 53 68 70 79 82 79 79 84 89 95 94 97 95 92 68 65 43 40 34 19 13 16 33 62 89 98 100 99 84 59 83 87 82 97 87 87 78 66 62 29